sat.trackr.live / text

‹ back to catalog

THURAYA-3

NORAD 32404 · 2008-001A

PAYLOAD ACTIVE UNKNOWN

§ Identity

Operator
Country
UAE
Launch date
2008-01-15
Launch site
SEAL
Launch vehicle
Mass (kg)
RCS (m²)
7.96

Purposes: comms

External: N2YO · Heavens-Above · Gunter

§ Orbital elements

Epoch: 2026-09-19T20:41:44.890368Z

Period
1,436.10 min
Inclination
6.1483°
Eccentricity
0.0002348
Mean motion
1.00271413 rev/d
Perigee alt
35,776.8 km
Apogee alt
35,796.6 km
Semi-major
42,164.8 km
B*
0.0000e+0
RAAN
35.8238°
Arg perigee
170.3965°
Mean anomaly
166.7229°
Rev number
6,843

§ Raw data

THURAYA-31 32404U 08001A   26262.86232512  .00000008  00000+0  00000+0 0  99952 32404   6.1483  35.8238 0002348 170.3965 166.7229  1.00271413 68437

JSON: /api/v1/satellites/32404 · /tle

For live sub-satellite position, see the globe view (requires WebGL).

§ Visibility from observer

Set your observer location to see the next 7 days of passes ≥ 10°. The values pass through the URL so the page stays shareable.

No JS? Fill the form by hand. The geolocation button needs JavaScript.